| time (UTC) | temp C | wind direction | speed KPH | gust KPH | rain 1hr cm | rain 24hr cm | rain mn cm | humidity % | barometer mb |
| 20260504110545 | 8 | 59 | 0.0 | 0.0 | 0.00 | 0.00 | 0.00 | 77 | 1016.7 |
| 20260504100511 | 8 | 59 | 0.0 | 0.0 | 0.00 | 0.00 | 0.00 | 76 | 1016.8 |
| 20260504090122 | 8 | 265 | 0.0 | 0.0 | 0.00 | 0.00 | 0.00 | 74 | 1017.4 |
| 20260504081518 | 9 | 265 | 0.0 | 1.6 | 0.00 | 0.00 | 0.00 | 70 | 1017.6 |
| 20260504081003 | 9 | 265 | 0.0 | 1.6 | 0.00 | 0.00 | 0.00 | 68 | 1017.6 |
| 20260504080550 | 9 | 265 | 0.0 | 1.6 | 0.00 | 0.00 | 0.00 | 67 | 1017.7 |
| 20260504050557 | 8 | 265 | 0.0 | 0.0 | 0.00 | 0.00 | 0.00 | 56 | 1018.4 |
| 20260504050016 | 8 | 265 | 0.0 | 0.0 | 0.00 | 0.00 | 0.00 | 57 | 1018.3 |
| 20260504045602 | 8 | 265 | 0.0 | 0.0 | 0.00 | 0.00 | 0.00 | 56 | 1018.4 |
| 20260504045047 | 8 | 265 | 0.0 | 0.0 | 0.00 | 0.00 | 0.00 | 57 | 1018.3 |
| 20260504044518 | 8 | 265 | 0.0 | 0.0 | 0.00 | 0.00 | 0.00 | 57 | 1018.5 |
| 20260504044057 | 8 | 265 | 0.0 | 0.0 | 0.00 | 0.00 | 0.00 | 55 | 1018.5 |
| 20260504043543 | 8 | 265 | 0.0 | 0.0 | 0.00 | 0.00 | 0.00 | 56 | 1018.4 |
| 20260504043048 | 8 | 265 | 0.0 | 0.0 | 0.00 | 0.00 | 0.00 | 55 | 1018.5 |
| 20260504042525 | 8 | 265 | 0.0 | 0.0 | 0.00 | 0.00 | 0.00 | 55 | 1018.4 |
| 20260504042010 | 8 | 265 | 0.0 | 0.0 | 0.00 | 0.00 | 0.00 | 55 | 1018.4 |
| 20260504041513 | 8 | 265 | 0.0 | 0.0 | 0.00 | 0.00 | 0.00 | 55 | 1018.4 |
| 20260504041059 | 8 | 265 | 0.0 | 0.0 | 0.00 | 0.00 | 0.00 | 55 | 1018.4 |
| 20260504040544 | 8 | 265 | 0.0 | 0.0 | 0.00 | 0.00 | 0.00 | 55 | 1018.5 |
| 20260504040003 | 8 | 265 | 0.0 | 0.0 | 0.00 | 0.00 | 0.00 | 55 | 1018.5 |
| 20260504035554 | 8 | 265 | 0.0 | 0.0 | 0.00 | 0.00 | 0.00 | 54 | 1018.5 |
| 20260504035036 | 8 | 265 | 0.0 | 0.0 | 0.00 | 0.00 | 0.00 | 53 | 1018.5 |
| 20260504034537 | 8 | 265 | 0.0 | 0.0 | 0.00 | 0.00 | 0.00 | 53 | 1018.5 |
| 20260504034022 | 9 | 265 | 0.0 | 0.0 | 0.00 | 0.00 | 0.00 | 53 | 1018.6 |
| 20260504033511 | 9 | 265 | 0.0 | 0.0 | 0.00 | 0.00 | 0.00 | 52 | 1018.6 |
| 20260504033030 | 9 | 265 | 0.0 | 0.0 | 0.00 | 0.00 | 0.00 | 53 | 1018.6 |
| 20260504032512 | 9 | 265 | 0.0 | 0.0 | 0.00 | 0.00 | 0.00 | 52 | 1018.6 |
| 20260504032101 | 9 | 265 | 0.0 | 0.0 | 0.00 | 0.00 | 0.00 | 52 | 1018.6 |
| 20260504031521 | 9 | 265 | 0.0 | 0.0 | 0.00 | 0.00 | 0.00 | 53 | 1018.7 |
| 20260504031004 | 9 | 265 | 0.0 | 0.0 | 0.00 | 0.00 | 0.00 | 51 | 1018.6 |
| 20260504030553 | 9 | 265 | 0.0 | 0.0 | 0.00 | 0.00 | 0.00 | 52 | 1018.6 |
| 20260504030052 | 9 | 265 | 0.0 | 0.0 | 0.00 | 0.00 | 0.00 | 51 | 1018.6 |
| 20260504025537 | 9 | 265 | 0.0 | 0.0 | 0.00 | 0.00 | 0.00 | 51 | 1018.7 |
| 20260504025021 | 9 | 265 | 0.0 | 0.0 | 0.00 | 0.00 | 0.00 | 51 | 1018.7 |
| 20260504024523 | 9 | 265 | 0.0 | 0.0 | 0.00 | 0.00 | 0.00 | 50 | 1018.6 |
| 20260504024008 | 9 | 265 | 0.0 | 0.0 | 0.00 | 0.00 | 0.00 | 50 | 1018.6 |
| 20260504023555 | 9 | 265 | 0.0 | 0.0 | 0.00 | 0.00 | 0.00 | 50 | 1018.7 |
| 20260504023018 | 9 | 265 | 0.0 | 0.0 | 0.00 | 0.00 | 0.00 | 50 | 1018.7 |
| 20260504022603 | 9 | 265 | 0.0 | 0.0 | 0.00 | 0.00 | 0.00 | 50 | 1018.7 |
| 20260504022048 | 9 | 265 | 0.0 | 0.0 | 0.00 | 0.00 | 0.00 | 50 | 1018.7 |
| 20260504021511 | 10 | 265 | 0.0 | 0.0 | 0.00 | 0.00 | 0.00 | 48 | 1018.6 |
| 20260504021056 | 10 | 265 | 0.0 | 0.0 | 0.00 | 0.00 | 0.00 | 49 | 1018.6 |
| 20260504020543 | 10 | 265 | 0.0 | 0.0 | 0.00 | 0.00 | 0.00 | 49 | 1018.6 |
| 20260504020040 | 10 | 265 | 0.0 | 0.0 | 0.00 | 0.00 | 0.00 | 49 | 1018.7 |
| 20260504015526 | 10 | 265 | 0.0 | 0.0 | 0.00 | 0.00 | 0.00 | 48 | 1018.7 |
| 20260504015009 | 10 | 265 | 0.0 | 0.0 | 0.00 | 0.00 | 0.00 | 48 | 1018.6 |
| 20260504014539 | 10 | 265 | 0.0 | 0.0 | 0.00 | 0.00 | 0.00 | 48 | 1018.7 |
| 20260504014017 | 10 | 265 | 0.0 | 0.0 | 0.00 | 0.00 | 0.00 | 48 | 1018.6 |
| 20260504013503 | 10 | 265 | 0.0 | 0.0 | 0.00 | 0.00 | 0.00 | 47 | 1018.6 |
| 20260504013121 | 10 | 265 | 0.0 | 0.0 | 0.00 | 0.00 | 0.00 | 47 | 1018.6 |
| 20260504012547 | 10 | 265 | 0.0 | 0.0 | 0.00 | 0.00 | 0.00 | 47 | 1018.6 |
| 20260504012035 | 10 | 265 | 0.0 | 0.0 | 0.00 | 0.00 | 0.00 | 47 | 1018.6 |
| 20260504011537 | 10 | 265 | 0.0 | 0.0 | 0.00 | 0.00 | 0.00 | 47 | 1018.6 |
| 20260504011017 | 10 | 265 | 0.0 | 0.0 | 0.00 | 0.00 | 0.00 | 46 | 1018.7 |
| 20260504010504 | 10 | 265 | 0.0 | 0.0 | 0.00 | 0.00 | 0.00 | 46 | 1018.7 |
| 20260504010027 | 10 | 265 | 0.0 | 0.0 | 0.00 | 0.00 | 0.00 | 45 | 1018.6 |
| 20260504005510 | 10 | 265 | 0.0 | 0.0 | 0.00 | 0.00 | 0.00 | 45 | 1018.6 |
| 20260504005057 | 10 | 265 | 0.0 | 0.0 | 0.00 | 0.00 | 0.00 | 45 | 1018.5 |
| 20260504004609 | 10 | 265 | 0.0 | 0.0 | 0.00 | 0.00 | 0.00 | 45 | 1018.4 |
| 20260504004043 | 10 | 265 | 0.0 | 0.0 | 0.00 | 0.00 | 0.00 | 45 | 1018.3 |
| 20260504003528 | 10 | 265 | 0.0 | 0.0 | 0.00 | 0.00 | 0.00 | 44 | 1018.3 |
| 20260504003034 | 10 | 265 | 0.0 | 0.0 | 0.00 | 0.00 | 0.00 | 44 | 1018.3 |
| 20260504002512 | 10 | 265 | 0.0 | 0.0 | 0.00 | 0.00 | 0.00 | 43 | 1018.3 |
| 20260504002101 | 11 | 265 | 0.0 | 0.0 | 0.00 | 0.00 | 0.00 | 43 | 1018.2 |
| 20260504001608 | 11 | 265 | 0.0 | 0.0 | 0.00 | 0.00 | 0.00 | 42 | 1018.3 |
| 20260504001044 | 11 | 265 | 0.0 | 0.0 | 0.00 | 0.00 | 0.00 | 42 | 1018.3 |
| 20260504000531 | 11 | 265 | 0.0 | 0.0 | 0.00 | 0.00 | 0.00 | 41 | 1018.4 |
| 20260504000050 | 11 | 265 | 0.0 | 0.0 | 0.00 | 0.00 | 0.00 | 40 | 1018.4 |
| 20260503235536 | 12 | 265 | 0.0 | 0.0 | 0.00 | 0.00 | 0.00 | 41 | 1018.3 |
| 20260503235020 | 12 | 265 | 0.0 | 1.6 | 0.00 | 0.00 | 0.00 | 39 | 1018.3 |
| 20260503234519 | 12 | 277 | 0.0 | 4.8 | 0.00 | 0.00 | 0.00 | 39 | 1018.4 |
| 20260503234001 | 12 | 277 | 0.0 | 9.7 | 0.00 | 0.00 | 0.00 | 38 | 1018.3 |
| 20260503233547 | 12 | 259 | 3.2 | 9.7 | 0.00 | 0.00 | 0.00 | 37 | 1018.4 |
| 20260503233000 | 12 | 305 | 3.2 | 9.7 | 0.00 | 0.00 | 0.00 | 36 | 1018.4 |
| 20260503232548 | 13 | 5 | 0.0 | 9.7 | 0.00 | 0.00 | 0.00 | 37 | 1018.5 |
| 20260503232031 | 13 | 286 | 3.2 | 9.7 | 0.00 | 0.00 | 0.00 | 35 | 1018.5 |
| 20260503231514 | 13 | 252 | 1.6 | 11.3 | 0.00 | 0.00 | 0.00 | 33 | 1018.4 |
| 20260503231056 | 13 | 258 | 3.2 | 11.3 | 0.00 | 0.00 | 0.00 | 34 | 1018.4 |
| 20260503230545 | 13 | 277 | 3.2 | 9.7 | 0.00 | 0.00 | 0.00 | 34 | 1018.6 |
| 20260503230104 | 13 | 201 | 3.2 | 9.7 | 0.00 | 0.00 | 0.00 | 33 | 1018.5 |
| 20260503225545 | 13 | 338 | 1.6 | 11.3 | 0.00 | 0.00 | 0.00 | 34 | 1018.6 |
| 20260503225033 | 14 | 227 | 3.2 | 11.3 | 0.00 | 0.00 | 0.00 | 35 | 1018.6 |
| 20260503224534 | 14 | 346 | 0.0 | 4.8 | 0.00 | 0.00 | 0.00 | 35 | 1018.7 |
| 20260503224015 | 14 | 117 | 0.0 | 14.5 | 0.00 | 0.00 | 0.00 | 34 | 1018.6 |
| 20260503223604 | 14 | 268 | 4.8 | 14.5 | 0.00 | 0.00 | 0.00 | 32 | 1018.7 |
| 20260503223102 | 14 | 325 | 3.2 | 16.1 | 0.00 | 0.00 | 0.00 | 33 | 1018.6 |
| 20260503222546 | 14 | 360 | 4.8 | 16.1 | 0.00 | 0.00 | 0.00 | 32 | 1018.6 |
| 20260503222031 | 14 | 216 | 3.2 | 14.5 | 0.00 | 0.00 | 0.00 | 33 | 1018.7 |
| 20260503221532 | 14 | 286 | 6.4 | 14.5 | 0.00 | 0.00 | 0.00 | 32 | 1018.7 |
| 20260503221015 | 14 | 274 | 3.2 | 8.0 | 0.00 | 0.00 | 0.00 | 33 | 1018.6 |
| 20260503220604 | 14 | 313 | 1.6 | 8.0 | 0.00 | 0.00 | 0.00 | 34 | 1018.6 |
| 20260503220121 | 14 | 50 | 1.6 | 8.0 | 0.00 | 0.00 | 0.00 | 32 | 1018.6 |
| 20260503215544 | 14 | 276 | 3.2 | 9.7 | 0.00 | 0.00 | 0.00 | 33 | 1018.6 |
| 20260503215029 | 14 | 63 | 0.0 | 14.5 | 0.00 | 0.00 | 0.00 | 32 | 1018.5 |
| 20260503214554 | 14 | 210 | 3.2 | 14.5 | 0.00 | 0.00 | 0.00 | 32 | 1018.6 |
| 20260503214041 | 14 | 258 | 3.2 | 9.7 | 0.00 | 0.00 | 0.00 | 33 | 1018.6 |
| 20260503213523 | 14 | 51 | 3.2 | 16.1 | 0.00 | 0.00 | 0.00 | 33 | 1018.6 |
| 20260503213022 | 14 | 219 | 3.2 | 16.1 | 0.00 | 0.00 | 0.00 | 32 | 1018.6 |
| 20260503212507 | 14 | 78 | 6.4 | 11.3 | 0.00 | 0.00 | 0.00 | 32 | 1018.6 |
| 20260503212053 | 14 | 314 | 3.2 | 9.7 | 0.00 | 0.00 | 0.00 | 32 | 1018.5 |
| 20260503211555 | 14 | 288 | 1.6 | 12.9 | 0.00 | 0.00 | 0.00 | 33 | 1018.7 |
| 20260503211039 | 14 | 165 | 6.4 | 20.9 | 0.00 | 0.00 | 0.00 | 31 | 1018.6 |
| 20260503210525 | 14 | 298 | 6.4 | 20.9 | 0.00 | 0.00 | 0.00 | 31 | 1018.9 |
| 20260503210022 | 14 | 288 | 6.4 | 16.1 | 0.00 | 0.00 | 0.00 | 32 | 1018.8 |
| 20260503205507 | 13 | 325 | 4.8 | 11.3 | 0.00 | 0.00 | 0.00 | 33 | 1018.9 |
| 20260503205053 | 14 | 117 | 0.0 | 14.5 | 0.00 | 0.00 | 0.00 | 33 | 1019.0 |
| 20260503204519 | 13 | 339 | 3.2 | 12.9 | 0.00 | 0.00 | 0.00 | 32 | 1019.1 |
| 20260503204102 | 13 | 246 | 6.4 | 17.7 | 0.00 | 0.00 | 0.00 | 32 | 1019.2 |
| 20260503203548 | 13 | 9 | 6.4 | 19.3 | 0.00 | 0.00 | 0.00 | 32 | 1019.2 |
| 20260503203006 | 13 | 265 | 8.0 | 22.5 | 0.00 | 0.00 | 0.00 | 31 | 1019.4 |
| 20260503202555 | 13 | 225 | 9.7 | 22.5 | 0.00 | 0.00 | 0.00 | 32 | 1019.3 |
| 20260503202038 | 13 | 271 | 8.0 | 17.7 | 0.00 | 0.00 | 0.00 | 32 | 1019.4 |
| 20260503201516 | 13 | 82 | 4.8 | 12.9 | 0.00 | 0.00 | 0.00 | 33 | 1019.4 |
| 20260503201001 | 13 | 200 | 1.6 | 11.3 | 0.00 | 0.00 | 0.00 | 33 | 1019.4 |
| 20260503200548 | 13 | 80 | 3.2 | 19.3 | 0.00 | 0.00 | 0.00 | 33 | 1019.5 |
| 20260503200047 | 13 | 103 | 4.8 | 25.7 | 0.00 | 0.00 | 0.00 | 34 | 1019.7 |
| 20260503195532 | 13 | 348 | 3.2 | 25.7 | 0.00 | 0.00 | 0.00 | 33 | 1019.8 |
| 20260503195016 | 13 | 340 | 9.7 | 25.7 | 0.00 | 0.00 | 0.00 | 33 | 1020.0 |
| 20260503194541 | 13 | 19 | 6.4 | 19.3 | 0.00 | 0.00 | 0.00 | 34 | 1020.0 |
| 20260503194026 | 13 | 338 | 8.0 | 19.3 | 0.00 | 0.00 | 0.00 | 33 | 1020.2 |
| 20260503193510 | 13 | 277 | 9.7 | 29.0 | 0.00 | 0.00 | 0.00 | 33 | 1020.1 |
| 20260503193031 | 13 | 205 | 12.9 | 29.0 | 0.00 | 0.00 | 0.00 | 34 | 1020.1 |
| 20260503192514 | 13 | 128 | 3.2 | 12.9 | 0.00 | 0.00 | 0.00 | 35 | 1020.3 |
| 20260503192104 | 13 | 52 | 3.2 | 17.7 | 0.00 | 0.00 | 0.00 | 35 | 1020.5 |
| 20260503191540 | 12 | 309 | 4.8 | 22.5 | 0.00 | 0.00 | 0.00 | 34 | 1020.4 |
| 20260503191024 | 12 | 237 | 8.0 | 22.5 | 0.00 | 0.00 | 0.00 | 36 | 1020.4 |
| 20260503190509 | 12 | 239 | 4.8 | 12.9 | 0.00 | 0.00 | 0.00 | 35 | 1020.4 |
| 20260503190028 | 12 | 325 | 6.4 | 16.1 | 0.00 | 0.00 | 0.00 | 34 | 1020.6 |
| 20260503185512 | 13 | 340 | 1.6 | 16.1 | 0.00 | 0.00 | 0.00 | 37 | 1020.6 |
| 20260503185104 | 12 | 68 | 3.2 | 22.5 | 0.00 | 0.00 | 0.00 | 35 | 1020.6 |
| 20260503184521 | 12 | 222 | 6.4 | 20.9 | 0.00 | 0.00 | 0.00 | 36 | 1020.8 |
| 20260503184006 | 12 | 225 | 6.4 | 16.1 | 0.00 | 0.00 | 0.00 | 38 | 1020.8 |
| 20260503183553 | 12 | 345 | 3.2 | 16.1 | 0.00 | 0.00 | 0.00 | 39 | 1020.7 |
| 20260503183054 | 12 | 246 | 1.6 | 9.7 | 0.00 | 0.00 | 0.00 | 36 | 1020.7 |
| 20260503182536 | 12 | 261 | 3.2 | 14.5 | 0.00 | 0.00 | 0.00 | 37 | 1020.7 |
| 20260503182019 | 11 | 247 | 6.4 | 14.5 | 0.00 | 0.00 | 0.00 | 38 | 1021.0 |
| 20260503181518 | 12 | 252 | 8.0 | 14.5 | 0.00 | 0.00 | 0.00 | 38 | 1021.0 |
| 20260503181002 | 11 | 195 | 6.4 | 16.1 | 0.00 | 0.00 | 0.00 | 38 | 1021.0 |
| 20260503180547 | 12 | 360 | 4.8 | 16.1 | 0.00 | 0.00 | 0.00 | 38 | 1021.0 |
| 20260503180054 | 12 | 113 | 4.8 | 12.9 | 0.00 | 0.00 | 0.00 | 38 | 1021.1 |
| 20260503175529 | 12 | 294 | 4.8 | 16.1 | 0.00 | 0.00 | 0.00 | 40 | 1021.3 |
| 20260503175014 | 11 | 250 | 4.8 | 12.9 | 0.00 | 0.00 | 0.00 | 41 | 1021.4 |
| 20260503174515 | 11 | 105 | 1.6 | 16.1 | 0.00 | 0.00 | 0.00 | 42 | 1021.4 |
| 20260503174104 | 11 | 244 | 6.4 | 22.5 | 0.00 | 0.00 | 0.00 | 39 | 1021.3 |
| 20260503173548 | 11 | 205 | 12.9 | 22.5 | 0.00 | 0.00 | 0.00 | 40 | 1021.5 |
| 20260503173003 | 11 | 107 | 3.2 | 22.5 | 0.00 | 0.00 | 0.00 | 44 | 1021.3 |
| 20260503172550 | 11 | 342 | 4.8 | 22.5 | 0.00 | 0.00 | 0.00 | 43 | 1021.5 |
| 20260503172034 | 11 | 96 | 4.8 | 20.9 | 0.00 | 0.00 | 0.00 | 42 | 1021.6 |
| 20260503171533 | 10 | 120 | 8.0 | 20.9 | 0.00 | 0.00 | 0.00 | 41 | 1021.6 |
| 20260503171015 | 10 | 321 | 8.0 | 17.7 | 0.00 | 0.00 | 0.00 | 40 | 1021.8 |
| 20260503170601 | 10 | 277 | 9.7 | 16.1 | 0.00 | 0.00 | 0.00 | 41 | 1021.7 |
| 20260503150539 | 7 | 234 | 3.2 | 17.7 | 0.00 | 0.00 | 0.00 | 53 | 1023.1 |
| 20260503150104 | 7 | 271 | 6.4 | 16.1 | 0.00 | 0.00 | 0.00 | 53 | 1023.1 |
| 20260503131052 | 5 | 337 | 1.6 | 8.0 | 0.00 | 0.00 | 0.00 | 72 | 1022.8 |
| 20260503130536 | 5 | 98 | 1.6 | 8.0 | 0.00 | 0.00 | 0.00 | 74 | 1022.8 |